| time (UTC) | temp C | wind direction | speed KPH | gust KPH | rain 1hr cm | rain 24hr cm | rain mn cm | humidity % | barometer mb |
| 20260906150828 | 12 | 213 | 0.0 | 3.2 | 0.08 | 0.64 | 0.28 | 94 | 1016.2 |
| 20260906150327 | 12 | 213 | 0.0 | 3.2 | 0.05 | 0.61 | 0.25 | 95 | 1016.1 |
| 20260906145825 | 12 | 213 | 0.0 | 3.2 | 0.05 | 0.61 | 0.25 | 95 | 1016.1 |
| 20260906145325 | 12 | 211 | 0.0 | 3.2 | 0.03 | 0.58 | 0.23 | 95 | 1016.0 |
| 20260906144827 | 12 | 211 | 0.0 | 3.2 | 0.03 | 0.58 | 0.23 | 94 | 1015.9 |
| 20260906144326 | 12 | 211 | 0.0 | 0.0 | 0.03 | 0.58 | 0.23 | 94 | 1015.8 |
| 20260906143826 | 12 | 211 | 0.0 | 0.0 | 0.03 | 0.58 | 0.23 | 94 | 1015.8 |
| 20260906143326 | 12 | 211 | 0.0 | 0.0 | 0.03 | 0.56 | 0.20 | 94 | 1015.8 |
| 20260906142825 | 12 | 211 | 0.0 | 0.0 | 0.03 | 0.56 | 0.20 | 94 | 1015.7 |
| 20260906142327 | 12 | 211 | 0.0 | 0.0 | 0.03 | 0.56 | 0.20 | 94 | 1015.6 |
| 20260906141825 | 12 | 211 | 0.0 | 0.0 | 0.03 | 0.56 | 0.20 | 94 | 1015.5 |
| 20260906141325 | 12 | 211 | 0.0 | 0.0 | 0.03 | 0.56 | 0.20 | 94 | 1015.5 |
| 20260906140826 | 12 | 211 | 0.0 | 1.6 | 0.03 | 0.56 | 0.20 | 94 | 1015.4 |
| 20260906140331 | 12 | 211 | 0.0 | 0.0 | 0.03 | 0.56 | 0.20 | 94 | 1015.3 |
| 20260906140327 | 12 | 211 | 0.0 | 1.6 | 0.03 | 0.56 | 0.20 | 94 | 1015.3 |
| 20260906135825 | 12 | 211 | 0.0 | 0.0 | 0.03 | 0.56 | 0.20 | 94 | 1015.3 |
| 20260906134825 | 12 | 211 | 0.0 | 0.0 | 0.03 | 0.56 | 0.20 | 94 | 1015.3 |
| 20260906134331 | 12 | 211 | 0.0 | 1.6 | 0.03 | 0.56 | 0.20 | 94 | 1015.2 |
| 20260906134326 | 12 | 211 | 0.0 | 1.6 | 0.03 | 0.56 | 0.20 | 94 | 1015.2 |
| 20260906133325 | 12 | 211 | 0.0 | 3.2 | 0.00 | 0.53 | 0.18 | 94 | 1015.2 |
| 20260906132825 | 12 | 211 | 0.0 | 3.2 | 0.03 | 0.53 | 0.18 | 94 | 1015.1 |
| 20260906132325 | 12 | 211 | 0.0 | 3.2 | 0.03 | 0.56 | 0.18 | 94 | 1015.2 |
| 20260906131826 | 12 | 211 | 0.0 | 3.2 | 0.03 | 0.56 | 0.18 | 94 | 1015.2 |
| 20260906131326 | 12 | 211 | 0.0 | 3.2 | 0.03 | 0.56 | 0.18 | 94 | 1015.2 |
| 20260906130826 | 12 | 211 | 0.0 | 3.2 | 0.03 | 0.56 | 0.18 | 93 | 1015.1 |
| 20260906130324 | 12 | 211 | 0.0 | 3.2 | 0.03 | 0.56 | 0.18 | 93 | 1015.2 |
| 20260906125821 | 12 | 240 | 0.0 | 3.2 | 0.03 | 0.56 | 0.18 | 93 | 1015.2 |
| 20260906125322 | 12 | 248 | 1.6 | 6.4 | 0.03 | 0.56 | 0.18 | 93 | 1015.1 |
| 20260906124821 | 12 | 248 | 0.0 | 6.4 | 0.03 | 0.56 | 0.18 | 93 | 1015.3 |
| 20260906124322 | 12 | 263 | 0.0 | 3.2 | 0.05 | 0.56 | 0.18 | 93 | 1015.3 |
| 20260906123821 | 12 | 264 | 0.0 | 3.2 | 0.05 | 0.56 | 0.18 | 93 | 1015.3 |
| 20260906123321 | 12 | 223 | 0.0 | 1.6 | 0.08 | 0.56 | 0.18 | 93 | 1015.3 |
| 20260906122820 | 12 | 223 | 0.0 | 3.2 | 0.13 | 0.53 | 0.15 | 93 | 1015.4 |
| 20260906122319 | 12 | 223 | 0.0 | 3.2 | 0.13 | 0.53 | 0.15 | 93 | 1015.4 |
| 20260906121820 | 12 | 223 | 0.0 | 3.2 | 0.15 | 0.53 | 0.15 | 93 | 1015.4 |
| 20260906121321 | 12 | 223 | 0.0 | 3.2 | 0.15 | 0.53 | 0.15 | 93 | 1015.4 |
| 20260906120821 | 12 | 223 | 0.0 | 3.2 | 0.15 | 0.53 | 0.15 | 93 | 1015.5 |
| 20260906120319 | 12 | 223 | 0.0 | 3.2 | 0.15 | 0.53 | 0.15 | 93 | 1015.4 |
| 20260906115825 | 12 | 225 | 1.6 | 6.4 | 0.15 | 0.53 | 0.15 | 93 | 1015.2 |
| 20260906115821 | 12 | 223 | 1.6 | 4.8 | 0.15 | 0.53 | 0.15 | 93 | 1015.2 |
| 20260906114819 | 12 | 217 | 1.6 | 6.4 | 0.15 | 0.53 | 0.15 | 93 | 1015.3 |
| 20260906114320 | 12 | 217 | 1.6 | 6.4 | 0.13 | 0.51 | 0.13 | 92 | 1015.3 |
| 20260906113820 | 12 | 221 | 1.6 | 6.4 | 0.13 | 0.51 | 0.13 | 92 | 1015.1 |
| 20260906113319 | 12 | 219 | 0.0 | 4.8 | 0.10 | 0.48 | 0.10 | 92 | 1015.1 |
| 20260906112820 | 12 | 220 | 0.0 | 4.8 | 0.03 | 0.41 | 0.03 | 92 | 1015.2 |
| 20260906112319 | 13 | 221 | 1.6 | 4.8 | 0.03 | 0.41 | 0.03 | 92 | 1015.2 |
| 20260906111824 | 12 | 207 | 1.6 | 4.8 | 0.00 | 0.38 | 0.00 | 92 | 1015.1 |
| 20260906111820 | 13 | 11 | 1.6 | 4.8 | 0.00 | 0.38 | 0.00 | 92 | 1015.2 |
| 20260906110819 | 12 | 203 | 0.0 | 3.2 | 0.00 | 0.38 | 0.00 | 92 | 1015.1 |
| 20260906110326 | 12 | 202 | 0.0 | 3.2 | 0.00 | 0.38 | 0.00 | 91 | 1015.1 |
| 20260906110319 | 12 | 202 | 0.0 | 3.2 | 0.00 | 0.38 | 0.00 | 92 | 1015.2 |
| 20260906105818 | 12 | 202 | 0.0 | 3.2 | 0.00 | 0.38 | 0.00 | 91 | 1015.1 |
| 20260906104825 | 12 | 269 | 1.6 | 4.8 | 0.00 | 0.38 | 0.00 | 91 | 1015.0 |
| 20260906104818 | 12 | 202 | 1.6 | 3.2 | 0.00 | 0.38 | 0.00 | 91 | 1015.0 |
| 20260906104317 | 12 | 243 | 0.0 | 3.2 | 0.00 | 0.38 | 0.00 | 91 | 1014.9 |
| 20260906103817 | 12 | 246 | 0.0 | 6.4 | 0.00 | 0.38 | 0.00 | 91 | 1014.9 |
| 20260906103317 | 12 | 240 | 1.6 | 6.4 | 0.00 | 0.38 | 0.00 | 91 | 1014.9 |
| 20260906102317 | 12 | 225 | 1.6 | 4.8 | 0.00 | 0.38 | 0.00 | 91 | 1014.9 |
| 20260906101817 | 12 | 252 | 1.6 | 4.8 | 0.00 | 0.38 | 0.00 | 91 | 1015.0 |
| 20260906101317 | 12 | 244 | 1.6 | 6.4 | 0.00 | 0.38 | 0.00 | 91 | 1015.0 |
| 20260906100816 | 13 | 250 | 1.6 | 6.4 | 0.00 | 0.38 | 0.00 | 91 | 1015.0 |
| 20260906100315 | 12 | 242 | 1.6 | 4.8 | 0.00 | 0.38 | 0.00 | 91 | 1015.1 |
| 20260906095815 | 13 | 278 | 1.6 | 4.8 | 0.00 | 0.38 | 0.00 | 91 | 1015.1 |
| 20260906095315 | 12 | 284 | 1.6 | 4.8 | 0.00 | 0.38 | 0.00 | 91 | 1015.1 |
| 20260906094821 | 12 | 246 | 1.6 | 6.4 | 0.00 | 0.38 | 0.00 | 91 | 1015.0 |
| 20260906094815 | 12 | 240 | 0.0 | 4.8 | 0.00 | 0.38 | 0.00 | 91 | 1015.0 |
| 20260906094428 | 12 | 244 | 1.6 | 6.4 | 0.00 | 0.38 | 0.00 | 91 | 1015.0 |
| 20260906093323 | 12 | 205 | 0.0 | 3.2 | 0.00 | 0.38 | 0.00 | 91 | 1014.9 |
| 20260906093315 | 12 | 253 | 1.6 | 4.8 | 0.00 | 0.38 | 0.00 | 91 | 1014.9 |
| 20260906092933 | 12 | 242 | 1.6 | 4.8 | 0.00 | 0.38 | 0.00 | 91 | 1014.9 |
| 20260906092815 | 12 | 290 | 0.0 | 3.2 | 0.00 | 0.38 | 0.00 | 91 | 1014.9 |
| 20260906091319 | 13 | 246 | 1.6 | 11.3 | 0.00 | 0.38 | 0.00 | 91 | 1014.9 |
| 20260906091313 | 12 | 259 | 1.6 | 4.8 | 0.00 | 0.38 | 0.00 | 91 | 1014.9 |
| 20260906090314 | 13 | 248 | 1.6 | 11.3 | 0.00 | 0.38 | 0.00 | 91 | 1014.9 |
| 20260906085813 | 13 | 229 | 1.6 | 8.0 | 0.00 | 0.38 | 0.00 | 91 | 1014.9 |
| 20260906085315 | 12 | 261 | 1.6 | 9.7 | 0.00 | 0.38 | 0.00 | 91 | 1014.9 |
| 20260906084815 | 12 | 261 | 1.6 | 9.7 | 0.00 | 0.38 | 0.00 | 91 | 1014.9 |
| 20260906084313 | 12 | 237 | 1.6 | 8.0 | 0.00 | 0.38 | 0.00 | 91 | 1014.9 |
| 20260906083814 | 12 | 242 | 3.2 | 8.0 | 0.00 | 0.38 | 0.00 | 91 | 1014.9 |
| 20260906083312 | 12 | 307 | 1.6 | 6.4 | 0.00 | 0.38 | 0.00 | 91 | 1015.0 |
| 20260906082813 | 12 | 215 | 1.6 | 4.8 | 0.00 | 0.38 | 0.00 | 91 | 1015.1 |
| 20260906082311 | 13 | 226 | 1.6 | 6.4 | 0.00 | 0.38 | 0.00 | 91 | 1015.0 |
| 20260906081811 | 13 | 217 | 1.6 | 8.0 | 0.00 | 0.38 | 0.00 | 92 | 1015.0 |
| 20260906081311 | 13 | 245 | 3.2 | 8.0 | 0.00 | 0.38 | 0.00 | 92 | 1015.1 |
| 20260906080811 | 13 | 195 | 1.6 | 6.4 | 0.00 | 0.38 | 0.00 | 92 | 1015.1 |
| 20260906080311 | 13 | 267 | 0.0 | 3.2 | 0.00 | 0.38 | 0.00 | 92 | 1015.0 |
| 20260906075810 | 13 | 223 | 0.0 | 3.2 | 0.00 | 0.38 | 0.00 | 92 | 1015.0 |
| 20260906075310 | 13 | 224 | 0.0 | 4.8 | 0.00 | 0.38 | 0.00 | 92 | 1015.1 |
| 20260906074812 | 13 | 262 | 0.0 | 4.8 | 0.00 | 0.38 | 0.00 | 92 | 1015.1 |
| 20260906074311 | 13 | 284 | 0.0 | 4.8 | 0.00 | 0.38 | 0.00 | 92 | 1015.2 |
| 20260906073811 | 13 | 243 | 0.0 | 4.8 | 0.00 | 0.38 | 0.00 | 91 | 1015.2 |
| 20260906073314 | 13 | 248 | 0.0 | 4.8 | 0.00 | 0.38 | 0.00 | 91 | 1015.2 |
| 20260906073309 | 13 | 246 | 0.0 | 3.2 | 0.00 | 0.38 | 0.00 | 91 | 1015.3 |
| 20260906072310 | 13 | 250 | 0.0 | 4.8 | 0.00 | 0.38 | 0.00 | 91 | 1015.2 |
| 20260906071810 | 13 | 244 | 0.0 | 4.8 | 0.00 | 0.38 | 0.00 | 91 | 1015.3 |
| 20260906071309 | 13 | 278 | 0.0 | 4.8 | 0.00 | 0.38 | 0.00 | 91 | 1015.3 |
| 20260906070811 | 13 | 244 | 0.0 | 4.8 | 0.00 | 0.38 | 0.00 | 91 | 1015.3 |
| 20260906070309 | 13 | 242 | 1.6 | 4.8 | 0.00 | 0.38 | 0.00 | 91 | 1015.3 |
| 20260906065810 | 13 | 190 | 1.6 | 4.8 | 0.00 | 0.38 | 0.38 | 91 | 1015.2 |
| 20260906065309 | 13 | 259 | 1.6 | 4.8 | 0.00 | 0.38 | 0.38 | 91 | 1015.3 |
| 20260906064809 | 13 | 249 | 1.6 | 6.4 | 0.00 | 0.38 | 0.38 | 91 | 1015.3 |
| 20260906064310 | 13 | 212 | 1.6 | 6.4 | 0.00 | 0.38 | 0.38 | 91 | 1015.3 |
| 20260906063809 | 13 | 232 | 0.0 | 4.8 | 0.00 | 0.38 | 0.38 | 91 | 1015.2 |
| 20260906063313 | 13 | 227 | 1.6 | 4.8 | 0.00 | 0.38 | 0.38 | 91 | 1015.3 |
| 20260906063309 | 13 | 225 | 1.6 | 4.8 | 0.00 | 0.38 | 0.38 | 91 | 1015.3 |
| 20260906062309 | 13 | 255 | 0.0 | 4.8 | 0.00 | 0.38 | 0.38 | 91 | 1015.4 |
| 20260906061808 | 13 | 260 | 0.0 | 4.8 | 0.00 | 0.38 | 0.38 | 91 | 1015.4 |
| 20260906061307 | 13 | 261 | 0.0 | 4.8 | 0.00 | 0.38 | 0.38 | 91 | 1015.4 |
| 20260906060807 | 13 | 238 | 0.0 | 4.8 | 0.00 | 0.38 | 0.38 | 91 | 1015.3 |
| 20260906060307 | 13 | 253 | 0.0 | 3.2 | 0.00 | 0.38 | 0.38 | 91 | 1015.4 |
| 20260906055812 | 13 | 255 | 1.6 | 6.4 | 0.00 | 0.38 | 0.38 | 91 | 1015.5 |
| 20260906055808 | 13 | 254 | 1.6 | 6.4 | 0.00 | 0.38 | 0.38 | 91 | 1015.4 |
| 20260906055306 | 13 | 252 | 1.6 | 4.8 | 0.00 | 0.38 | 0.38 | 91 | 1015.5 |
| 20260906054310 | 13 | 258 | 0.0 | 4.8 | 0.00 | 0.38 | 0.38 | 90 | 1015.5 |
| 20260906054305 | 13 | 212 | 0.0 | 3.2 | 0.00 | 0.38 | 0.38 | 91 | 1015.5 |
| 20260906053305 | 13 | 267 | 0.0 | 4.8 | 0.00 | 0.38 | 0.38 | 90 | 1015.5 |
| 20260906052806 | 13 | 226 | 0.0 | 4.8 | 0.00 | 0.38 | 0.38 | 90 | 1015.6 |
| 20260906052305 | 13 | 224 | 1.6 | 4.8 | 0.00 | 0.38 | 0.38 | 90 | 1015.6 |
| 20260906051803 | 13 | 248 | 1.6 | 4.8 | 0.00 | 0.38 | 0.38 | 90 | 1015.7 |
| 20260906051303 | 13 | 219 | 1.6 | 4.8 | 0.00 | 0.38 | 0.38 | 90 | 1015.6 |
| 20260906050805 | 13 | 265 | 1.6 | 6.4 | 0.00 | 0.38 | 0.38 | 90 | 1015.6 |
| 20260906050308 | 14 | 250 | 1.6 | 6.4 | 0.00 | 0.38 | 0.38 | 90 | 1015.5 |
| 20260906050303 | 14 | 253 | 1.6 | 6.4 | 0.00 | 0.38 | 0.38 | 90 | 1015.5 |
| 20260906045416 | 14 | 220 | 1.6 | 6.4 | 0.00 | 0.38 | 0.38 | 89 | 1015.6 |
| 20260906045309 | 14 | 211 | 1.6 | 6.4 | 0.00 | 0.38 | 0.38 | 89 | 1015.6 |
| 20260906045306 | 14 | 211 | 1.6 | 6.4 | 0.00 | 0.38 | 0.38 | 89 | 1015.5 |
| 20260906043804 | 14 | 213 | 1.6 | 6.4 | 0.00 | 0.38 | 0.38 | 89 | 1015.7 |
| 20260906043302 | 14 | 209 | 3.2 | 8.0 | 0.00 | 0.38 | 0.38 | 89 | 1015.7 |
| 20260906042806 | 14 | 182 | 3.2 | 9.7 | 0.00 | 0.38 | 0.38 | 89 | 1015.7 |
| 20260906042801 | 14 | 209 | 4.8 | 9.7 | 0.00 | 0.38 | 0.38 | 89 | 1015.7 |
| 20260906041800 | 14 | 229 | 3.2 | 11.3 | 0.00 | 0.38 | 0.38 | 89 | 1015.7 |
| 20260906041301 | 14 | 212 | 3.2 | 11.3 | 0.00 | 0.38 | 0.38 | 89 | 1015.7 |
| 20260906040801 | 14 | 218 | 3.2 | 6.4 | 0.00 | 0.38 | 0.38 | 89 | 1015.7 |
| 20260906040302 | 14 | 208 | 1.6 | 6.4 | 0.00 | 0.38 | 0.38 | 89 | 1015.7 |
| 20260906035803 | 14 | 238 | 1.6 | 6.4 | 0.00 | 0.38 | 0.38 | 89 | 1015.7 |
| 20260906035301 | 14 | 235 | 1.6 | 4.8 | 0.00 | 0.38 | 0.38 | 89 | 1015.7 |
| 20260906034800 | 14 | 240 | 1.6 | 8.0 | 0.00 | 0.38 | 0.38 | 88 | 1015.7 |
| 20260906034258 | 14 | 247 | 1.6 | 8.0 | 0.00 | 0.38 | 0.38 | 88 | 1015.7 |
| 20260906033759 | 14 | 223 | 1.6 | 4.8 | 0.00 | 0.38 | 0.38 | 87 | 1015.6 |
| 20260906033259 | 15 | 230 | 1.6 | 8.0 | 0.00 | 0.38 | 0.38 | 87 | 1015.6 |
| 20260906032759 | 15 | 213 | 1.6 | 8.0 | 0.00 | 0.38 | 0.38 | 87 | 1015.6 |
| 20260906032258 | 15 | 219 | 3.2 | 8.0 | 0.00 | 0.38 | 0.38 | 87 | 1015.6 |
| 20260906031759 | 15 | 222 | 1.6 | 8.0 | 0.00 | 0.38 | 0.38 | 86 | 1015.6 |
| 20260906031259 | 15 | 202 | 1.6 | 6.4 | 0.00 | 0.38 | 0.38 | 86 | 1015.5 |
| 20260906030759 | 15 | 208 | 1.6 | 6.4 | 0.00 | 0.38 | 0.38 | 86 | 1015.4 |
| 20260906030300 | 15 | 243 | 1.6 | 8.0 | 0.00 | 0.38 | 0.38 | 86 | 1015.4 |
| 20260906025800 | 15 | 234 | 1.6 | 8.0 | 0.00 | 0.38 | 0.38 | 85 | 1015.4 |
| 20260906025257 | 15 | 234 | 0.0 | 4.8 | 0.00 | 0.38 | 0.38 | 85 | 1015.4 |
| 20260906024757 | 15 | 229 | 1.6 | 4.8 | 0.00 | 0.38 | 0.38 | 85 | 1015.5 |
| 20260906024257 | 15 | 205 | 3.2 | 6.4 | 0.00 | 0.38 | 0.38 | 85 | 1015.5 |
| 20260906023758 | 15 | 209 | 3.2 | 6.4 | 0.00 | 0.38 | 0.38 | 84 | 1015.5 |
| 20260906023301 | 15 | 213 | 3.2 | 6.4 | 0.00 | 0.38 | 0.38 | 84 | 1015.6 |
| 20260906023257 | 15 | 215 | 3.2 | 6.4 | 0.00 | 0.38 | 0.38 | 84 | 1015.5 |
| 20260906022255 | 15 | 225 | 3.2 | 6.4 | 0.00 | 0.38 | 0.38 | 84 | 1015.6 |
| 20260906021754 | 16 | 232 | 1.6 | 6.4 | 0.00 | 0.38 | 0.38 | 84 | 1015.6 |
| 20260906021255 | 16 | 244 | 1.6 | 6.4 | 0.00 | 0.38 | 0.38 | 84 | 1015.6 |
| 20260906020757 | 16 | 242 | 1.6 | 6.4 | 0.00 | 0.38 | 0.38 | 83 | 1015.6 |
| 20260906020753 | 16 | 232 | 1.6 | 6.4 | 0.00 | 0.38 | 0.38 | 83 | 1015.6 |
| 20260906015754 | 16 | 216 | 3.2 | 6.4 | 0.00 | 0.38 | 0.38 | 82 | 1015.7 |
| 20260906015251 | 16 | 229 | 1.6 | 4.8 | 0.00 | 0.38 | 0.38 | 82 | 1015.7 |
| 20260906014751 | 16 | 231 | 1.6 | 4.8 | 0.00 | 0.38 | 0.38 | 81 | 1015.7 |
| 20260906014250 | 16 | 223 | 3.2 | 8.0 | 0.00 | 0.38 | 0.38 | 81 | 1015.6 |
| 20260906013749 | 17 | 244 | 3.2 | 8.0 | 0.00 | 0.38 | 0.38 | 80 | 1015.6 |
| 20260906013249 | 17 | 210 | 3.2 | 6.4 | 0.00 | 0.38 | 0.38 | 79 | 1015.6 |
| 20260906012748 | 17 | 221 | 1.6 | 4.8 | 0.00 | 0.38 | 0.38 | 78 | 1015.6 |
| 20260906012249 | 17 | 219 | 1.6 | 6.4 | 0.00 | 0.38 | 0.38 | 79 | 1015.6 |
| 20260906011748 | 17 | 208 | 3.2 | 9.7 | 0.00 | 0.38 | 0.38 | 79 | 1015.6 |
| 20260906011249 | 17 | 291 | 3.2 | 9.7 | 0.00 | 0.38 | 0.38 | 78 | 1015.5 |
| 20260906010748 | 17 | 315 | 1.6 | 8.0 | 0.00 | 0.38 | 0.38 | 79 | 1015.5 |
| 20260906010248 | 17 | 244 | 1.6 | 8.0 | 0.00 | 0.38 | 0.38 | 79 | 1015.4 |
| 20260906005749 | 17 | 259 | 1.6 | 8.0 | 0.00 | 0.38 | 0.38 | 79 | 1015.4 |
| 20260906005249 | 17 | 257 | 1.6 | 6.4 | 0.00 | 0.38 | 0.38 | 79 | 1015.4 |
| 20260906004747 | 17 | 258 | 1.6 | 6.4 | 0.00 | 0.38 | 0.38 | 79 | 1015.4 |
| 20260906004248 | 17 | 239 | 1.6 | 6.4 | 0.00 | 0.38 | 0.38 | 79 | 1015.4 |
| 20260906003747 | 17 | 240 | 1.6 | 6.4 | 0.00 | 0.38 | 0.38 | 79 | 1015.4 |
| 20260906003248 | 17 | 267 | 1.6 | 4.8 | 0.00 | 0.38 | 0.38 | 78 | 1015.4 |
| 20260906002744 | 17 | 257 | 1.6 | 4.8 | 0.00 | 0.38 | 0.38 | 76 | 1015.5 |
| 20260906002246 | 18 | 246 | 1.6 | 4.8 | 0.00 | 0.38 | 0.38 | 76 | 1015.6 |
| 20260906001744 | 18 | 271 | 1.6 | 4.8 | 0.00 | 0.38 | 0.38 | 76 | 1015.6 |
| 20260906001244 | 18 | 285 | 1.6 | 4.8 | 0.00 | 0.38 | 0.38 | 75 | 1015.6 |
| 20260906000744 | 18 | 267 | 3.2 | 11.3 | 0.00 | 0.38 | 0.38 | 75 | 1015.6 |
| 20260906000248 | 18 | 285 | 3.2 | 11.3 | 0.00 | 0.38 | 0.38 | 75 | 1015.6 |
| 20260905235746 | 18 | 310 | 3.2 | 6.4 | 0.00 | 0.38 | 0.38 | 74 | 1015.5 |
| 20260905235246 | 18 | 250 | 3.2 | 8.0 | 0.00 | 0.38 | 0.38 | 77 | 1015.5 |
| 20260905234752 | 18 | 269 | 3.2 | 4.8 | 0.00 | 0.41 | 0.38 | 73 | 1015.5 |
| 20260905234744 | 18 | 270 | 3.2 | 8.0 | 0.00 | 0.38 | 0.38 | 73 | 1015.5 |
| 20260905234246 | 18 | 306 | 1.6 | 4.8 | 0.00 | 0.38 | 0.38 | 73 | 1015.5 |
| 20260905233244 | 18 | 295 | 3.2 | 9.7 | 0.00 | 0.41 | 0.38 | 75 | 1015.5 |
| 20260905232744 | 18 | 273 | 1.6 | 9.7 | 0.00 | 0.41 | 0.38 | 76 | 1015.6 |
| 20260905232244 | 18 | 281 | 1.6 | 6.4 | 0.00 | 0.41 | 0.38 | 77 | 1015.5 |
| 20260905231745 | 18 | 315 | 1.6 | 6.4 | 0.00 | 0.41 | 0.38 | 75 | 1015.6 |
| 20260905231246 | 18 | 344 | 1.6 | 6.4 | 0.00 | 0.41 | 0.38 | 77 | 1015.7 |
| 20260905230745 | 18 | 288 | 1.6 | 6.4 | 0.00 | 0.43 | 0.38 | 78 | 1015.7 |
| 20260905230244 | 18 | 307 | 1.6 | 6.4 | 0.00 | 0.43 | 0.38 | 80 | 1015.7 |
| 20260905225744 | 17 | 248 | 1.6 | 8.0 | 0.00 | 0.43 | 0.38 | 79 | 1015.8 |
| 20260905225244 | 18 | 302 | 1.6 | 8.0 | 0.00 | 0.43 | 0.38 | 80 | 1015.8 |
| 20260905224744 | 18 | 216 | 1.6 | 6.4 | 0.00 | 0.43 | 0.38 | 77 | 1015.9 |
| 20260905224245 | 18 | 306 | 3.2 | 6.4 | 0.00 | 0.43 | 0.38 | 78 | 1015.9 |
| 20260905223744 | 18 | 288 | 1.6 | 6.4 | 0.00 | 0.43 | 0.38 | 78 | 1015.9 |
| 20260905223245 | 18 | 285 | 3.2 | 6.4 | 0.00 | 0.43 | 0.38 | 79 | 1016.0 |
| 20260905222744 | 18 | 306 | 3.2 | 8.0 | 0.00 | 0.43 | 0.38 | 82 | 1016.1 |
| 20260905222243 | 18 | 198 | 3.2 | 8.0 | 0.00 | 0.43 | 0.38 | 82 | 1016.1 |
| 20260905221743 | 18 | 5 | 3.2 | 6.4 | 0.00 | 0.43 | 0.38 | 82 | 1016.1 |
| 20260905221243 | 17 | 297 | 3.2 | 8.0 | 0.00 | 0.43 | 0.38 | 79 | 1016.1 |
| 20260905220742 | 17 | 237 | 1.6 | 8.0 | 0.00 | 0.43 | 0.38 | 85 | 1016.2 |
| 20260905220248 | 17 | 302 | 1.6 | 8.0 | 0.00 | 0.43 | 0.38 | 82 | 1016.3 |
| 20260905220242 | 17 | 278 | 3.2 | 8.0 | 0.00 | 0.43 | 0.38 | 81 | 1016.2 |
| 20260905215243 | 17 | 312 | 1.6 | 6.4 | 0.05 | 0.43 | 0.38 | 84 | 1016.3 |
| 20260905214746 | 17 | 287 | 1.6 | 6.4 | 0.10 | 0.43 | 0.38 | 86 | 1016.4 |
| 20260905214741 | 17 | 238 | 1.6 | 6.4 | 0.08 | 0.43 | 0.38 | 85 | 1016.4 |
| 20260905213740 | 16 | 306 | 1.6 | 4.8 | 0.13 | 0.43 | 0.38 | 89 | 1016.4 |
| 20260905213238 | 16 | 290 | 1.6 | 4.8 | 0.18 | 0.43 | 0.38 | 88 | 1016.4 |
| 20260905212738 | 16 | 300 | 1.6 | 4.8 | 0.23 | 0.43 | 0.38 | 88 | 1016.4 |
| 20260905212238 | 16 | 296 | 0.0 | 4.8 | 0.30 | 0.43 | 0.38 | 89 | 1016.4 |
| 20260905211739 | 16 | 226 | 0.0 | 0.0 | 0.33 | 0.46 | 0.38 | 87 | 1016.4 |
| 20260905211236 | 16 | 221 | 0.0 | 0.0 | 0.36 | 0.46 | 0.38 | 88 | 1016.7 |
| 20260905210737 | 15 | 221 | 0.0 | 0.0 | 0.36 | 0.48 | 0.38 | 90 | 1016.7 |
| 20260905210236 | 15 | 221 | 0.0 | 0.0 | 0.36 | 0.48 | 0.38 | 89 | 1016.8 |
| 20260905205736 | 15 | 221 | 0.0 | 3.2 | 0.36 | 0.48 | 0.38 | 88 | 1016.8 |
| 20260905205240 | 15 | 221 | 0.0 | 3.2 | 0.28 | 0.41 | 0.30 | 87 | 1016.8 |
| 20260905205236 | 15 | 221 | 0.0 | 3.2 | 0.30 | 0.43 | 0.33 | 89 | 1016.8 |
| 20260905204240 | 15 | 221 | 1.6 | 4.8 | 0.23 | 0.36 | 0.28 | 86 | 1016.8 |
| 20260905204236 | 15 | 221 | 1.6 | 3.2 | 0.25 | 0.38 | 0.28 | 88 | 1016.8 |
| 20260905203237 | 16 | 221 | 1.6 | 4.8 | 0.18 | 0.30 | 0.20 | 86 | 1016.8 |
| 20260905202736 | 16 | 192 | 0.0 | 3.2 | 0.13 | 0.25 | 0.15 | 85 | 1016.8 |
| 20260905202236 | 16 | 187 | 0.0 | 3.2 | 0.05 | 0.18 | 0.08 | 83 | 1016.8 |
| 20260905201734 | 16 | 186 | 0.0 | 3.2 | 0.03 | 0.15 | 0.05 | 82 | 1016.8 |
| 20260905201234 | 16 | 168 | 0.0 | 3.2 | 0.00 | 0.13 | 0.03 | 80 | 1016.8 |
| 20260905200734 | 16 | 168 | 0.0 | 4.8 | 0.00 | 0.15 | 0.03 | 82 | 1016.8 |
| 20260905200234 | 16 | 167 | 0.0 | 4.8 | 0.00 | 0.15 | 0.03 | 83 | 1016.7 |
| 20260905195735 | 16 | 38 | 1.6 | 3.2 | 0.00 | 0.15 | 0.03 | 81 | 1016.7 |
| 20260905195239 | 16 | 355 | 3.2 | 6.4 | 0.00 | 0.18 | 0.03 | 83 | 1016.8 |
| 20260905195235 | 16 | 303 | 1.6 | 6.4 | 0.00 | 0.18 | 0.03 | 82 | 1016.8 |
| 20260905194234 | 16 | 24 | 3.2 | 6.4 | 0.00 | 0.18 | 0.03 | 83 | 1016.8 |
| 20260905193734 | 16 | 9 | 1.6 | 6.4 | 0.00 | 0.20 | 0.03 | 83 | 1016.8 |
| 20260905193235 | 16 | 20 | 1.6 | 11.3 | 0.00 | 0.20 | 0.03 | 83 | 1016.9 |
| 20260905192733 | 16 | 10 | 1.6 | 11.3 | 0.00 | 0.20 | 0.03 | 85 | 1017.0 |
| 20260905192238 | 16 | 28 | 1.6 | 11.3 | 0.00 | 0.20 | 0.03 | 83 | 1016.9 |
| 20260905191732 | 16 | 95 | 1.6 | 11.3 | 0.00 | 0.20 | 0.03 | 85 | 1017.0 |
| 20260905191232 | 16 | 288 | 1.6 | 6.4 | 0.00 | 0.20 | 0.03 | 84 | 1017.0 |
| 20260905190732 | 16 | 34 | 1.6 | 4.8 | 0.00 | 0.20 | 0.03 | 84 | 1017.0 |
| 20260905190232 | 16 | 155 | 1.6 | 6.4 | 0.00 | 0.20 | 0.03 | 87 | 1017.0 |
| 20260905185734 | 16 | 113 | 1.6 | 6.4 | 0.00 | 0.20 | 0.03 | 88 | 1017.1 |
| 20260905185232 | 15 | 19 | 1.6 | 6.4 | 0.00 | 0.20 | 0.03 | 90 | 1017.0 |
| 20260905184732 | 15 | 355 | 1.6 | 4.8 | 0.00 | 0.20 | 0.03 | 88 | 1017.1 |
| 20260905184233 | 15 | 65 | 1.6 | 4.8 | 0.00 | 0.20 | 0.03 | 87 | 1017.1 |
| 20260905183736 | 15 | 225 | 1.6 | 6.4 | 0.00 | 0.20 | 0.03 | 89 | 1017.1 |
| 20260905183731 | 15 | 275 | 1.6 | 6.4 | 0.00 | 0.20 | 0.03 | 89 | 1017.1 |
| 20260905183230 | 15 | 180 | 1.6 | 6.4 | 0.00 | 0.20 | 0.03 | 88 | 1017.1 |
| 20260905182230 | 15 | 44 | 1.6 | 6.4 | 0.00 | 0.20 | 0.03 | 90 | 1017.1 |
| 20260905181736 | 15 | 5 | 1.6 | 6.4 | 0.00 | 0.20 | 0.03 | 91 | 1017.1 |
| 20260905181730 | 15 | 148 | 0.0 | 3.2 | 0.00 | 0.20 | 0.03 | 91 | 1017.1 |
| 20260905181345 | 14 | 0 | 1.6 | 6.4 | 0.00 | 0.20 | 0.03 | 90 | 1017.2 |
| 20260905180842 | 14 | 9 | 1.6 | 4.8 | 0.00 | 0.20 | 0.03 | 90 | 1017.2 |
| 20260905180349 | 14 | 5 | 1.6 | 4.8 | 0.00 | 0.20 | 0.03 | 90 | 1017.2 |
| 20260905175231 | 14 | 25 | 1.6 | 8.0 | 0.00 | 0.20 | 0.03 | 90 | 1017.2 |
| 20260905174734 | 14 | 98 | 1.6 | 8.0 | 0.00 | 0.20 | 0.03 | 89 | 1017.1 |
| 20260905174728 | 14 | 150 | 1.6 | 8.0 | 0.00 | 0.20 | 0.03 | 89 | 1017.1 |
| 20260905173728 | 14 | 136 | 1.6 | 8.0 | 0.00 | 0.20 | 0.03 | 90 | 1017.0 |
| 20260905173228 | 15 | 181 | 1.6 | 14.5 | 0.00 | 0.20 | 0.03 | 90 | 1017.0 |
| 20260905172734 | 15 | 145 | 1.6 | 3.2 | 0.00 | 0.20 | 0.03 | 89 | 1017.0 |
| 20260905172730 | 15 | 143 | 1.6 | 14.5 | 0.00 | 0.20 | 0.03 | 90 | 1017.0 |
| 20260905171733 | 14 | 96 | 1.6 | 8.0 | 0.00 | 0.20 | 0.03 | 90 | 1017.0 |
| 20260905171729 | 14 | 150 | 1.6 | 6.4 | 0.00 | 0.20 | 0.03 | 90 | 1017.0 |
| 20260905171342 | 14 | 172 | 1.6 | 8.0 | 0.00 | 0.20 | 0.03 | 91 | 1017.0 |
| 20260905170841 | 14 | 128 | 1.6 | 8.0 | 0.00 | 0.20 | 0.03 | 92 | 1017.0 |
| 20260905170341 | 14 | 180 | 1.6 | 8.0 | 0.00 | 0.20 | 0.03 | 92 | 1016.9 |
| 20260905165229 | 14 | 169 | 1.6 | 6.4 | 0.00 | 0.20 | 0.03 | 91 | 1016.9 |
| 20260905164728 | 14 | 181 | 1.6 | 6.4 | 0.00 | 0.20 | 0.03 | 92 | 1017.0 |
| 20260905164231 | 14 | 184 | 1.6 | 8.0 | 0.00 | 0.20 | 0.03 | 91 | 1017.0 |
| 20260905164226 | 14 | 172 | 1.6 | 8.0 | 0.00 | 0.20 | 0.03 | 91 | 1017.0 |
| 20260905163840 | 14 | 178 | 1.6 | 9.7 | 0.00 | 0.20 | 0.03 | 92 | 1016.9 |
| 20260905162724 | 14 | 172 | 1.6 | 9.7 | 0.00 | 0.20 | 0.03 | 91 | 1016.9 |
| 20260905162226 | 14 | 175 | 1.6 | 6.4 | 0.00 | 0.20 | 0.03 | 91 | 1016.9 |
| 20260905161724 | 14 | 147 | 1.6 | 4.8 | 0.00 | 0.20 | 0.03 | 90 | 1016.9 |
| 20260905161221 | 14 | 184 | 1.6 | 4.8 | 0.00 | 0.20 | 0.03 | 91 | 1016.9 |
| 20260905160724 | 14 | 0 | 0.0 | 4.8 | 0.00 | 0.20 | 0.03 | 91 | 1016.9 |
| 20260905160222 | 14 | 231 | 0.0 | 3.2 | 0.00 | 0.20 | 0.03 | 91 | 1016.9 |
| 20260905155727 | 14 | 304 | 0.0 | 0.0 | 0.00 | 0.20 | 0.03 | 92 | 1016.9 |
| 20260905155723 | 14 | 304 | 0.0 | 0.0 | 0.00 | 0.20 | 0.03 | 92 | 1016.9 |
| 20260905154723 | 14 | 304 | 0.0 | 0.0 | 0.00 | 0.20 | 0.03 | 94 | 1016.9 |
| 20260905154222 | 13 | 318 | 0.0 | 0.0 | 0.00 | 0.20 | 0.03 | 94 | 1016.9 |
| 20260905153721 | 13 | 318 | 0.0 | 0.0 | 0.00 | 0.20 | 0.03 | 93 | 1016.9 |
| 20260905153222 | 13 | 268 | 0.0 | 0.0 | 0.00 | 0.20 | 0.03 | 94 | 1016.9 |
| 20260905152721 | 13 | 268 | 0.0 | 0.0 | 0.00 | 0.20 | 0.03 | 94 | 1016.9 |
| 20260905152221 | 13 | 268 | 0.0 | 0.0 | 0.00 | 0.20 | 0.03 | 94 | 1016.9 |
| 20260905151721 | 13 | 268 | 0.0 | 0.0 | 0.00 | 0.20 | 0.03 | 95 | 1016.9 |
| 20260905151221 | 13 | 256 | 0.0 | 0.0 | 0.00 | 0.20 | 0.03 | 95 | 1016.9 |